sat.trackr.live / text

‹ back to catalog

FLOCK 4BE-31

NORAD 60488 · 2024-149W

PAYLOAD ACTIVE UNKNOWN

§ Identity

Operator
Country
US
Launch date
2024-08-16
Launch site
AFWTR
Launch vehicle
Mass (kg)
RCS (m²)

Purposes: earth_obs

External: N2YO · Heavens-Above · Gunter

§ Orbital elements

Epoch: 2026-09-19T04:48:52.969248Z

Period
93.01 min
Inclination
97.3744°
Eccentricity
0.0001352
Mean motion
15.48169474 rev/d
Perigee alt
421.2 km
Apogee alt
423.0 km
Semi-major
6,800.2 km
B*
6.4192e-4
RAAN
349.1014°
Arg perigee
278.0648°
Mean anomaly
82.0449°
Rev number
11,690

§ Raw data

FLOCK 4BE-311 60488U 24149W   26262.20061307  .00033749  00000+0  64192-3 0  99932 60488  97.3744 349.1014 0001352 278.0648  82.0449 15.48169474116903

JSON: /api/v1/satellites/60488 · /tle

For live sub-satellite position, see the globe view (requires WebGL).

§ Visibility from observer

Set your observer location to see the next 7 days of passes ≥ 10°. The values pass through the URL so the page stays shareable.

No JS? Fill the form by hand. The geolocation button needs JavaScript.